TimeCST,TemperatureF,Dew PointF,Humidity,Sea Level PressureIn,VisibilityMPH,Wind Direction,Wind SpeedMPH,Gust SpeedMPH,PrecipitationIn,Events,Conditions,WindDirDegrees,DateUTC
12:15 AM,25.2,22.5,89,30.09,4.0,South,9.2,-,N/A,,Clear,170,2013-01-08 06:15:00
12:35 AM,24.6,21.9,89,30.08,4.0,South,10.4,-,N/A,,Clear,170,2013-01-08 06:35:00
12:55 AM,24.4,21.7,89,30.09,4.0,South,9.2,-,N/A,,Clear,170,2013-01-08 06:55:00
1:15 AM,24.3,21.6,89,30.08,4.0,South,10.4,-,N/A,,Clear,180,2013-01-08 07:15:00
1:35 AM,24.1,21.4,89,30.08,4.0,South,10.4,-,N/A,,Clear,180,2013-01-08 07:35:00
1:55 AM,23.7,21.0,89,30.09,4.0,South,9.2,-,N/A,,Clear,180,2013-01-08 07:55:00
2:15 AM,23.0,20.3,89,30.09,4.0,South,9.2,-,N/A,,Clear,180,2013-01-08 08:15:00
2:35 AM,23.2,20.5,89,30.09,4.0,South,8.1,-,N/A,,Clear,180,2013-01-08 08:35:00
2:55 AM,23.0,20.3,89,30.09,4.0,South,9.2,-,N/A,,Clear,180,2013-01-08 08:55:00
3:15 AM,22.8,20.1,89,30.08,4.0,South,8.1,-,N/A,,Clear,190,2013-01-08 09:15:00
3:35 AM,22.1,19.4,89,30.08,4.0,South,8.1,-,N/A,,Clear,180,2013-01-08 09:35:00
3:55 AM,21.7,19.0,89,30.08,4.0,South,9.2,-,N/A,,Clear,180,2013-01-08 09:55:00
4:15 AM,21.6,18.9,89,30.08,4.0,South,9.2,-,N/A,,Clear,170,2013-01-08 10:15:00
4:35 AM,21.9,19.4,90,30.08,4.0,South,9.2,-,N/A,,Clear,170,2013-01-08 10:35:00
4:55 AM,22.5,19.9,90,30.08,4.0,South,11.5,-,N/A,,Clear,170,2013-01-08 10:55:00
5:15 AM,22.1,19.4,89,30.09,4.0,South,6.9,-,N/A,,Clear,180,2013-01-08 11:15:00
5:35 AM,21.2,18.5,89,30.09,4.0,South,6.9,-,N/A,,Clear,170,2013-01-08 11:35:00
5:55 AM,21.6,19.0,90,30.09,4.0,SSE,8.1,-,N/A,,Clear,160,2013-01-08 11:55:00
6:15 AM,21.9,19.4,90,30.09,4.0,South,8.1,-,N/A,,Clear,170,2013-01-08 12:15:00
6:35 AM,21.2,19.4,93,30.09,4.0,South,9.2,-,N/A,,Clear,170,2013-01-08 12:35:00
6:55 AM,21.2,18.5,89,30.10,4.0,South,8.1,-,N/A,,Clear,170,2013-01-08 12:55:00
7:15 AM,21.2,18.5,89,30.11,4.0,South,8.1,-,N/A,,Clear,170,2013-01-08 13:15:00
7:35 AM,21.2,18.9,91,30.11,3.0,South,6.9,-,N/A,,Clear,170,2013-01-08 13:35:00
7:55 AM,22.8,20.3,90,30.12,3.0,SSE,8.1,-,N/A,,Clear,160,2013-01-08 13:55:00
8:15 AM,23.9,21.2,89,30.12,4.0,SSE,9.2,-,N/A,,Clear,160,2013-01-08 14:15:00
8:35 AM,25.3,22.5,89,30.13,4.0,SSE,9.2,-,N/A,,Clear,160,2013-01-08 14:35:00
8:55 AM,26.2,23.2,88,30.13,4.0,SSE,8.1,-,N/A,,Clear,150,2013-01-08 14:55:00
9:15 AM,27.9,24.6,88,30.13,5.0,South,9.2,-,N/A,,Clear,170,2013-01-08 15:15:00
9:35 AM,28.8,25.3,87,30.14,5.0,South,10.4,-,N/A,,Clear,170,2013-01-08 15:35:00
9:55 AM,30.2,26.6,86,30.14,5.0,South,11.5,-,N/A,,Clear,170,2013-01-08 15:55:00
10:15 AM,31.3,27.3,85,30.13,5.0,South,11.5,-,N/A,,Clear,170,2013-01-08 16:15:00
10:35 AM,31.5,27.0,83,30.13,7.0,South,11.5,-,N/A,,Clear,180,2013-01-08 16:35:00
10:55 AM,32.0,27.3,83,30.13,7.0,South,10.4,-,N/A,,Clear,180,2013-01-08 16:55:00
11:15 AM,32.5,27.9,83,30.12,7.0,South,11.5,-,N/A,,Clear,170,2013-01-08 17:15:00
11:35 AM,32.9,27.9,82,30.11,7.0,South,11.5,-,N/A,,Clear,170,2013-01-08 17:35:00
11:55 AM,33.3,28.4,82,30.10,7.0,South,11.5,-,N/A,,Clear,170,2013-01-08 17:55:00
12:15 PM,34.7,29.1,80,30.09,7.0,South,11.5,-,N/A,,Clear,180,2013-01-08 18:15:00
12:35 PM,36.3,29.8,77,30.08,10.0,South,10.4,-,N/A,,Clear,170,2013-01-08 18:35:00
12:55 PM,37.0,29.5,74,30.08,10.0,South,12.7,-,N/A,,Clear,170,2013-01-08 18:55:00
1:15 PM,37.8,29.7,73,30.07,10.0,South,10.4,-,N/A,,Clear,170,2013-01-08 19:15:00
1:35 PM,39.2,30.2,70,30.07,10.0,South,12.7,-,N/A,,Clear,180,2013-01-08 19:35:00
1:55 PM,40.1,30.0,67,30.06,10.0,South,12.7,-,N/A,,Clear,170,2013-01-08 19:55:00
2:15 PM,40.1,29.5,66,30.06,10.0,South,13.8,-,N/A,,Clear,170,2013-01-08 20:15:00
2:35 PM,41.0,29.7,64,30.07,10.0,South,13.8,-,N/A,,Clear,170,2013-01-08 20:35:00
2:55 PM,39.6,29.8,68,30.07,10.0,SSE,13.8,-,N/A,,Clear,160,2013-01-08 20:55:00
3:15 PM,39.6,29.8,68,30.06,10.0,SSE,13.8,-,N/A,,Clear,160,2013-01-08 21:15:00
3:35 PM,40.3,30.2,67,30.05,10.0,SSE,11.5,-,N/A,,Clear,160,2013-01-08 21:35:00
3:55 PM,39.0,29.7,69,30.04,10.0,SSE,11.5,-,N/A,,Clear,160,2013-01-08 21:55:00
4:15 PM,38.8,29.8,70,30.04,10.0,SSE,13.8,-,N/A,,Clear,160,2013-01-08 22:15:00
4:35 PM,38.1,29.7,72,30.04,10.0,SSE,12.7,-,N/A,,Clear,160,2013-01-08 22:35:00
4:55 PM,36.1,29.5,77,30.03,10.0,SSE,13.8,-,N/A,,Clear,160,2013-01-08 22:55:00
5:15 PM,36.0,29.8,78,30.04,10.0,SSE,15.0,-,N/A,,Clear,160,2013-01-08 23:15:00
5:35 PM,35.1,29.7,81,30.04,10.0,SSE,16.1,-,N/A,,Clear,160,2013-01-08 23:35:00
5:55 PM,35.1,29.8,81,30.04,10.0,SSE,17.3,-,N/A,,Clear,160,2013-01-08 23:55:00
6:15 PM,34.0,29.7,84,30.04,10.0,SSE,16.1,-,N/A,,Clear,160,2013-01-09 00:15:00
6:35 PM,33.8,29.8,85,30.04,7.0,SSE,16.1,-,N/A,,Scattered Clouds,150,2013-01-09 00:35:00
6:55 PM,34.0,30.0,85,30.04,7.0,SSE,16.1,-,N/A,,Mostly Cloudy,160,2013-01-09 00:55:00
7:15 PM,33.8,30.0,86,30.03,7.0,SSE,17.3,-,N/A,,Mostly Cloudy,160,2013-01-09 01:15:00
7:35 PM,33.8,29.8,85,30.02,7.0,SSE,18.4,-,N/A,,Mostly Cloudy,150,2013-01-09 01:35:00
7:55 PM,33.8,29.8,85,30.03,7.0,SSE,18.4,23.0,N/A,,Mostly Cloudy,160,2013-01-09 01:55:00
8:15 PM,33.8,29.8,85,30.04,10.0,South,16.1,-,N/A,,Mostly Cloudy,170,2013-01-09 02:15:00
8:35 PM,33.8,30.0,86,30.04,7.0,South,13.8,-,N/A,,Overcast,170,2013-01-09 02:35:00
8:55 PM,34.2,30.0,85,30.04,10.0,South,18.4,-,N/A,,Overcast,180,2013-01-09 02:55:00
9:15 PM,34.2,29.3,82,30.04,10.0,South,17.3,-,N/A,,Mostly Cloudy,180,2013-01-09 03:15:00
9:35 PM,33.8,29.3,84,30.04,10.0,South,16.1,-,N/A,,Scattered Clouds,180,2013-01-09 03:35:00
9:55 PM,33.8,29.1,83,30.03,10.0,South,15.0,21.9,N/A,,Scattered Clouds,180,2013-01-09 03:55:00
10:15 PM,33.6,29.1,84,30.03,10.0,South,15.0,19.6,N/A,,Scattered Clouds,170,2013-01-09 04:15:00
10:35 PM,33.8,29.1,83,30.02,10.0,South,15.0,-,N/A,,Scattered Clouds,180,2013-01-09 04:35:00
10:55 PM,33.8,28.4,81,30.01,10.0,South,17.3,-,N/A,,Scattered Clouds,180,2013-01-09 04:55:00
11:15 PM,33.8,30.2,87,30.01,10.0,South,17.3,-,N/A,,Mostly Cloudy,180,2013-01-09 05:15:00
11:35 PM,34.2,29.5,83,30.01,10.0,South,15.0,-,N/A,,Overcast,190,2013-01-09 05:35:00
11:55 PM,34.7,30.0,83,30.01,10.0,South,15.0,-,N/A,,Overcast,190,2013-01-09 05:55:00